www.pogodaiklimat.ru

Погода и климат >> Архив погоды >> Китай >> Гуанси-Чжуанский автономный район >> Напо


ПОГОДА в Напо

  • Прогноз погоды в Напо
  • Монитор погоды в Напо

АРХИВ ПОГОДЫ в Напо

Время (UTC), дата Ветер
(напр.,м/с)
 
Видим.   Явления Облачность Т
(С)
Тd
(С)
f
(%)
Тe
(С)
Тes
(С)
Комфортность P
(гПа)
Po
(гПа)
Тmin
(С)
Tmax
(С)
R
(мм)
R24
(мм)
S
(см)
21 11.09 СЗ 2 11 км н/о +20.6 +20.1 97 +26 +26 душно 1011.9 922.6
00 12.09 ЮЗ 1 18 км 9/9 300 м
[]
+21.1 +20.6 97 +26 +26 душно 1013.7 924.4 0.4
03 12.09 ЮВ 2 30 км 8/8 600 м
[]
+26.7 +20.8 70 +33 +36 очень
душно
1013.0 925.4
06 12.09 ЮВ 3 30 км 8/8 600 м
[]
+29.0 +20.5 60 +36 +39 очень
душно
1010.0 923.2 +20.3
09 12.09 Ю 5 30 км 4/4 600 м
[]
+29.1 +19.7 57 +35 +37 очень
душно
1007.9 921.4
12 12.09 ЮВ 1 30 км 5/5 600 м
[]
+23.7 +20.8 84 +30 +30 очень
душно
1009.8 921.6
18 12.09 Ю 1 24 км ?/? +21.2 +20.2 94 +26 +26 душно 1010.5 1011.0 +30.2
21 12.09 В 1 14 км н/о +20.8 +20.1 96 +27 +27 душно 1009.5 920.5
00 13.09 ЮЗ 1 24 км 8/8 600 м
[]
+21.5 +20.7 95 +27 +27 душно 1010.9 922.0
03 13.09 Ю 2 30 км 5/5 600 м
[]
+26.3 +20.6 71 +33 +40 очень
душно
1011.1 923.5
06 13.09 ЮВ 3 30 км 5/5 600 м
[]
+29.4 +19.1 54 +35 +42 очень
душно
1008.3 921.8 +20.5
09 13.09 Ю 5 30 км 1/1 600 м
[]
+29.4 +19.4 55 +35 +37 очень
душно
1006.7 920.3
12 13.09 З 1 30 км 1/1 600 м
[]
+24.1 +21.2 84 +30 +30 очень
душно
1008.6 920.6
18 13.09 С 1 10 км ?/? +20.8 +20.1 96 +27 +27 душно 1009.8 920.8 +30.9
21 13.09 ЮВ 1 6000 м дымка н/о +19.9 +19.4 97 +24 +24 комфорт 1010.0 920.7
00 14.09 СЗ 1 700 м дымка ясно +20.2 +19.9 98 +25 +27 комфорт 1011.6 922.2
03 14.09 С 2 30 км {туман} 1/1 600 м
[]
+28.3 +20.8 64 +35 +49 очень
душно
1011.1 924.1
06 14.09 Ю 3 30 км {туман} 4/4 600 м
[]
+29.5 +19.5 55 +35 +44 очень
душно
1009.0 922.5 +19.3
09 14.09 З 2 30 км 3/3 600 м
[]
+30.6 +18.7 49 +36 +39 очень
душно
1006.8 920.8
12 14.09 З 1 30 км 1/1 600 м
[]
+24.2 +20.9 82 +30 +30 очень
душно
1009.3 921.3
18 14.09 ЮЗ 1 9000 м ?/? +20.8 +20.1 96 +27 +27 душно 1009.9 920.8 +31.3
21 14.09 З 1 н/о дымка н/о +19.9 +19.4 97 +24 +24 комфорт 1009.0 919.8
00 15.09 З 1 1100 м дымка 3/3
[]
+20.3 +20.0 98 +25 +27 комфорт 1011.4 922.1
03 15.09 В 2 26 км ясно +28.5 +19.7 59 +34 +49 очень
душно
1010.3 923.4
06 15.09 В 2 30 км 4/4 600 м
[]
+30.4 +18.2 48 +35 +46 очень
душно
1007.6 921.4 +19.6
09 15.09 Ю 4 30 км 9/9 600 м
[]
+29.8 +18.6 51 +35 +35 очень
душно
1006.5 920.3
12 15.09 З 2 13 км в посл. час дождь 3/3 600 м
[]
+21.6 +20.4 93 +27 +27 душно 1009.5 920.7 4
18 15.09 СЗ 1 7000 м ?/? +19.8 +19.1 96 +24 +24 комфорт 1009.9 916.1 +31.0
21 15.09 Ю 1 4400 м дымка н/о +19.2 +18.7 97 +22 +22 комфорт 1009.6 920.1
00 16.09 ЮЗ 1 9000 м 10/10 600 м
[]
+19.8 +19.3 97 +24 +24 комфорт 1012.0 916.6
03 16.09 В 2 18 км 6/6 600 м
[]
+28.1 +21.2 66 +35 +41 очень
душно
1010.9 923.8
06 16.09 ЮВ 1 30 км 8/8 600 м
[]
+30.4 +19.4 52 +36 +40 очень
душно
1007.5 921.3 +18.9
09 16.09 СЗ 1 30 км 9/9 600 м
[]
+26.4 +22.3 78 +34 +35 очень
душно
1007.7 920.4
12 16.09 Ю 1 22 км 8/8 600 м
[]
+22.7 +20.6 88 +30 +30 очень
душно
1008.7 920.3
18 16.09 СЗ 1 8000 м ?/? +20.0 +19.3 96 +24 +24 комфорт 1009.9 916.1 +31.1
21 16.09 З 1 6000 м дымка н/о +19.8 +19.1 96 +24 +24 комфорт 1010.9 921.5
00 17.09 З 1 4700 м 10/10 300 м
[]
+19.9 +19.2 96 +24 +24 комфорт 1013.0 923.4
03 17.09 З 2 24 км 8/8 600 м
[]
+26.0 +20.8 73 +33 +35 очень
душно
1012.9 925.1
06 17.09 ЮВ 2 30 км 4/4 600 м
[]
+30.2 +20.2 55 +37 +47 очень
душно
1009.3 922.9 +19.3
09 17.09 ЮЗ 2 30 км 5/5 600 м
[]
+29.6 +20.2 57 +36 +38 очень
душно
1008.0 921.6
12 17.09 З 2 15 км в посл. час дождь 8/8 300 м
[]
+23.9 +22.2 90 +31 +31 очень
душно
1011.0 922.7 0.2
18 17.09 СЗ 1 9000 м ?/? +20.8 +20.0 95 +27 +27 душно 1012.0 922.8 +31.0
21 17.09 СЗ 1 7000 м дымка н/о +19.9 +19.2 96 +24 +24 комфорт 1012.1 922.6
00 18.09 СЗ 1 10 км 8/8 600 м
[]
+20.6 +19.8 95 +26 +26 душно 1015.0 925.4
03 18.09 СВ 1 12 км 9/9 600 м
[]
+25.1 +21.2 79 +32 +33 очень
душно
1015.0 926.7
06 18.09 СЗ 4 29 км {дождь} 10/10 600 м
[]
+23.7 +20.6 83 +30 +30 очень
душно
1014.1 925.5 +19.8 0.9
09 18.09 З 1 9000 м слаб. дождь {морось} 9/9 600 м
[]
+23.1 +21.9 93 +31 +32 очень
душно
1013.6 924.9
12 18.09 З 2 7000 м слаб. дождь {морось} 10/10 300 м
[]
+22.0 +21.2 95 +28 +28 душно 1015.3 926.1 8
18 18.09 З 1 10 км ?/? +20.8 +20.1 96 +27 +27 душно 1015.0 925.5 +25.4 13

 

Местоположение метеостанции Напо (Гуанси-Чжуанский автономный район, Китай): широта 23.30 долгота 105.95 высота над уровнем моря 794 м.

В архиве по умолчанию представлена погода в Напо за последнюю неделю. Архивные данные за месяц целиком и за предыдущие месяцы, начиная с января 2011 года, Вы можете получить, выбрав интересующий диапазон дат из раскрывающегося списка и нажав кнопку "Ввод!".


*Определитесь, кто Вы:
робот инопланетянин человек

Внимание! Время в таблицах - всемирное. Для получения местного времени необходимо прибавить поправку, которая равна 8 ч.

Смотрите также архив погоды в соседних городах и на ближайших метеорологических станциях:

Погода в Каобанге (Вьетнам) (77 км)
Погода в Байсэ (Гуанси-Чжуанский автономный район, Китай) (94 км)
Погода в Гуаннане (Юньнань, Китай) (125 км)
Погода в Баккане (Вьетнам) (129 км)
Погода в Лончжоу (Гуанси-Чжуанский автономный район, Китай) (132 км)
Погода в Лангсоне (Вьетнам) (183 км)
Погода в Лаокае (Вьетнам) (222 км)
Погода в Шапе (Вьетнам) (242 км)
Погода в Наньнине (Гуанси-Чжуанский автономный район, Китай) (243 км)
Погода в Синрене (Гуйчжоу, Китай) (249 км)

Пояснения к столбцам:

Ветер - указаны скорость ветра в м/с - средняя за 10 мин, порывы в срок и между сроками (в фигурных скобках) и направление, откуда дует ветер: С - северный, СВ - северо-восточный, В - восточный, ЮВ - юго-восточный, Ю - южный, ЮЗ - юго-западный, З - западный, СЗ - северо-западный.
Видимость - горизонтальная дальность видимости в метрах или километрах. При видимости от 1 до 10 км при отсутствии осадков обычно наблюдается дымка, при ухудшении видимости до 1 км и менее - туман. В сухую погоду видимость может ухудшаться дымом, пылью или мглою.
Явления - указаны атмосферные явления, наблюдавшиеся в срок или в последний час перед сроком; фигурными скобками обозначены явления, наблюдавшиеся между сроками (за 1-3 часа до срока); квадратными скобками обозначены град или гололедные отложения с указанием их диаметра в мм.
Облачность - указаны через наклонную черту общая и нижняя облачность в баллах и высота нижней границы облаков в метрах; квадратными скобками обозначены формы облаков: Ci - перистые, Cs - перисто-слоистые, Cc - перисто-кучевые, Ac - высококучевые, As - высокослоистые, Sc - слоисто-кучевые, Ns - слоисто-дождевые, Cu - кучевые, Cb - кучево-дождевые. Подробнее классификацию облаков см. в Атласе облаков (PDF).
T - Температура воздуха - температура, измеренная на высоте 2 м над землей.
Td - Температура точки росы - температура, при понижении до которой содержащийся в воздухе водяной пар достигнет насыщения.
f - Относительная влажность воздуха - влажноcть воздуха, измеренная на высоте 2 м над землей.
Te - Эффективная температура - температура, которую ощущает одетый по сезону человек в тени. Характеристика душности погоды. При расчете учитывается влияние влажности воздуха и скорости ветра на теплоощущения человека.
Tes - Эффективная температура на солнце - температура, которую ощущает человек, с поправкой на солнечный нагрев. Характеристика знойности погоды. Зависит от высоты солнца над горизонтом, облачности и скорости ветра. Ночью, в пасмурную погоду, а также при ветре 12 м/с и более поправка равна нулю.
P - Атмосферное давление - приведенное к уровню моря атмосферное давление.
Po - Атмосферное давление - измеренное на уровне метеостанции атмосферное давление.
Tmin - Минимальная температура - минимум температуры воздуха на высоте 2 м над землей.
Tmax - Максимальная температура - максимум температуры воздуха на высоте 2 м над землей.
R - Количество осадков - Количество выпавших осадков за период времени, мм. При наведении курсора мыши на число - период времени, за который выпало указанное количество осадков.
R24 - Количество осадков - Количество выпавших осадков за 24 часа, мм.
S - Снежный покров - Высота снежного покрова, см. При наведении курсора мыши на число - состояние снежного покрова и степень покрытия местности в баллах.